Location: Hall+in+Tirol
(47.2830°N, 11.5170°E)
Time: 09:24:04
(UTC+02:00)

Amateur Radio Satellites - All Passes

Search period start: 31 July 2014 08:54
Search period end: 01 August 2014 08:54
Location: Hall+in+Tirol, 47.2830°N, 11.5170°E

Satellite Date Start Highest point End Downlink Frequencies (MHz)
Time Altitude Azimuth
Hamsat 31 Jul 09:04:03 09:05:44 12° 301° (WNW) 09:07:26 145.90 MHz
HO-68 31 Jul 09:04:19 09:09:19 20° 89° (E) 09:14:16 435.675 MHz FM
JAS-2 31 Jul 09:21:04 09:25:27 21° 305° (NW) 09:29:31 435.800 - 435.900 CW/SSB, 435.910 FM
Sapphire 31 Jul 09:29:03 09:34:29 69° 54° (NE) 09:39:53 437.095 MHz 1200 baud AX-25 AFSK
SO-67 31 Jul 09:37:25 09:39:46 17° 295° (WNW) 09:42:06 435.3500 MHz FM
Saudisat 1A 31 Jul 09:45:20 09:48:46 21° 326° (NW) 09:52:12 436.775 MHz
UKube-1 31 Jul 09:51:02 09:54:30 23° 94° (E) 09:57:57 145.840 MHz, 145.915 MHz
PCSat 31 Jul 10:02:20 10:07:44 66° 241° (WSW) 10:13:05 145.825 MHz
KITSAT 1 31 Jul 10:19:47 10:25:47 22° 347° (NNW) 10:31:47 435.175 FM
Oscar 11 31 Jul 10:33:25 10:37:24 34° 97° (E) 10:41:22 145.825 FM, Beacon 2401.500 USB
HO-68 31 Jul 10:50:43 10:57:55 87° 289° (WNW) 11:05:03 435.675 MHz FM
FUNcube-1 31 Jul 11:01:15 11:04:45 25° 94° (E) 11:08:16 145.950 - 145.970 MHz USB
Sapphire 31 Jul 11:13:25 11:17:24 21° 253° (WSW) 11:21:21 437.095 MHz 1200 baud AX-25 AFSK
UKube-1 31 Jul 11:26:47 11:30:52 40° 292° (WNW) 11:34:55 145.840 MHz, 145.915 MHz
RS-15 31 Jul 11:33:30 11:37:55 13° 94° (E) 11:42:17 29.354 - 29.394 USB, Beacon 29.352 USB
SO-50 31 Jul 11:37:28 11:40:03 15° 110° (ESE) 11:42:40 436.795 FM
JAS-1B 31 Jul 11:39:49 11:42:37 12° 30° (NNE) 11:45:25 435.800 - 435.900 CW/SSB
Oscar 11 31 Jul 12:09:50 12:13:29 27° 294° (WNW) 12:17:08 145.825 FM, Beacon 2401.500 USB
KITSAT 1 31 Jul 12:18:16 12:24:28 23° 17° (NNE) 12:30:39 435.175 FM
Oscar 19 31 Jul 12:26:09 12:29:31 18° 58° (ENE) 12:32:52 437.125 CW, 437.150 USB
FUNcube-1 31 Jul 12:37:28 12:41:13 33° 292° (WNW) 12:44:59 145.950 - 145.970 MHz USB
HO-68 31 Jul 12:39:34 12:44:42 22° 309° (NW) 12:49:50 435.675 MHz FM
Oscar 16 31 Jul 12:53:37 12:58:01 30° 64° (ENE) 13:02:28 437.025 USB, Beacon 2401.1428
SO-50 31 Jul 13:15:31 13:20:01 77° 309° (NW) 13:24:37 436.795 FM
ITAMSAT 1 31 Jul 13:19:40 13:23:52 25° 61° (ENE) 13:28:04 435.822 SSB
JAS-1B 31 Jul 13:22:00 13:30:05 34° 54° (NE) 13:38:31 435.800 - 435.900 CW/SSB
UOSAT-12 31 Jul 13:25:40 13:28:08 14° 109° (ESE) 13:30:38 437.025 FM, 437.400 FM
RS-15 31 Jul 13:36:56 13:47:43 60° 116° (ESE) 13:58:19 29.354 - 29.394 USB, Beacon 29.352 USB
Uribyol 2 31 Jul 13:37:51 13:42:34 36° 66° (ENE) 13:47:17 436.500 FM
AO-27 31 Jul 13:38:51 13:43:34 36° 65° (ENE) 13:48:18 436.795 MHz FM
TMSAT-1 31 Jul 13:50:35 13:53:48 17° 56° (NE) 13:57:00 436.925 FM
AO-Echo 31 Jul 14:00:45 14:05:56 55° 70° (ENE) 14:11:06 ?
Oscar 19 31 Jul 14:03:10 14:08:16 76° 257° (WSW) 14:13:26 437.125 CW, 437.150 USB
AO-7 31 Jul 14:05:00 14:10:06 18° 41° (NE) 14:15:12 29.400 - 29.500 MHz
KITSAT 1 31 Jul 14:14:06 14:21:59 52° 44° (NE) 14:29:48 435.175 FM
Gurwin Techsat 1B 31 Jul 14:14:40 14:19:20 32° 64° (ENE) 14:24:01 435.225 FM
Oscar 16 31 Jul 14:32:26 14:37:15 41° 262° (W) 14:42:06 437.025 USB, Beacon 2401.1428
Saudisat 1A 31 Jul 14:49:03 14:52:52 27° 38° (NE) 14:56:39 436.775 MHz
ITAMSAT 1 31 Jul 14:57:59 15:03:03 52° 260° (W) 15:08:10 435.822 SSB
SO-50 31 Jul 14:58:11 15:01:21 18° 331° (NNW) 15:04:35 436.795 FM
UOSAT-12 31 Jul 15:02:59 15:07:37 85° 308° (NW) 15:12:22 437.025 FM, 437.400 FM
JAS-1B 31 Jul 15:10:24 15:19:36 80° 256° (WSW) 15:29:38 435.800 - 435.900 CW/SSB
Uribyol 2 31 Jul 15:17:21 15:22:03 34° 264° (W) 15:26:46 436.500 FM
AO-27 31 Jul 15:18:20 15:23:05 35° 264° (W) 15:27:51 436.795 MHz FM
TMSAT-1 31 Jul 15:27:42 15:33:01 87° 255° (WSW) 15:38:22 436.925 FM
AO-Echo 31 Jul 15:40:47 15:45:00 24° 268° (W) 15:49:14 ?
Oscar 19 31 Jul 15:47:51 15:48:30 10° 275° (W) 15:49:10 437.125 CW, 437.150 USB
RS-15 31 Jul 15:49:40 16:00:22 53° 322° (NW) 16:11:02 29.354 - 29.394 USB, Beacon 29.352 USB
AO-7 31 Jul 15:53:07 16:01:16 60° 63° (ENE) 16:09:27 29.400 - 29.500 MHz
Gurwin Techsat 1B 31 Jul 15:54:14 15:59:12 40° 263° (W) 16:04:13 435.225 FM
Uosat F 31 Jul 16:00:15 16:05:05 48° 69° (ENE) 16:09:56 435.120 FM
JAS-2 31 Jul 16:09:15 16:11:57 12° 47° (NE) 16:14:35 435.800 - 435.900 CW/SSB, 435.910 FM
KITSAT 1 31 Jul 16:09:44 16:17:23 48° 246° (WSW) 16:24:59 435.175 FM
Saudisat 1A 31 Jul 16:28:24 16:32:42 52° 238° (WSW) 16:36:58 436.775 MHz
UOSAT-12 31 Jul 16:45:00 16:48:29 20° 329° (NNW) 16:51:59 437.025 FM, 437.400 FM
Hamsat 31 Jul 16:49:54 16:51:16 11° 58° (ENE) 16:52:38 145.90 MHz
OPAL 31 Jul 16:57:27 17:02:08 36° 99° (E) 17:06:50 ?
JAS-1B 31 Jul 17:04:52 17:11:36 22° 278° (W) 17:18:45 435.800 - 435.900 CW/SSB
TMSAT-1 31 Jul 17:11:22 17:13:43 13° 274° (W) 17:16:05 436.925 FM
Uosat F 31 Jul 17:40:02 17:44:07 24° 267° (W) 17:48:13 435.120 FM
AO-7 31 Jul 17:46:54 17:54:26 37° 264° (W) 18:02:02 29.400 - 29.500 MHz
JAS-2 31 Jul 17:48:17 17:55:35 50° 67° (ENE) 18:02:19 435.800 - 435.900 CW/SSB, 435.910 FM
RS-15 31 Jul 18:06:23 18:15:50 32° 355° (N) 18:25:22 29.354 - 29.394 USB, Beacon 29.352 USB
Hamsat 31 Jul 18:22:23 18:26:34 89° 260° (W) 18:30:49 145.90 MHz
SO-50 31 Jul 18:24:19 18:26:33 13° 21° (NNE) 18:28:47 436.795 FM
OPAL 31 Jul 18:36:25 18:40:59 35° 297° (WNW) 18:45:35 ?
SO-67 31 Jul 18:40:24 18:43:03 21° 67° (ENE) 18:45:43 435.3500 MHz FM
STRAND 1 31 Jul 19:24:53 19:29:24 31° 95° (E) 19:33:53 ?
JAS-2 31 Jul 19:33:31 19:40:41 41° 264° (W) 19:47:22 435.800 - 435.900 CW/SSB, 435.910 FM
Oscar 10/S400 31 Jul 19:34:13 19:48:30 23° 138° (SE) 20:11:30 145.825 - 145.975 CW/USB, Beacon 145.810 USB
HO-68 31 Jul 19:36:51 19:42:17 24° 52° (NE) 19:47:42 435.675 MHz FM
SO-50 31 Jul 20:03:55 20:08:23 40° 43° (NE) 20:12:54 436.795 FM
MaSat-1 31 Jul 20:06:35 20:08:21 12° 98° (E) 20:10:11 437.345 MHz
UOSAT-12 31 Jul 20:10:45 20:12:49 13° 19° (NNE) 20:14:53 437.025 FM, 437.400 FM
SO-67 31 Jul 20:12:58 20:16:00 28° 264° (W) 20:19:03 435.3500 MHz FM
RS-15 31 Jul 20:21:32 20:31:49 43° 29° (NNE) 20:42:19 29.354 - 29.394 USB, Beacon 29.352 USB
UKube-1 31 Jul 20:49:30 20:53:20 31° 66° (ENE) 20:57:11 145.840 MHz, 145.915 MHz
STRAND 1 31 Jul 21:03:57 21:08:41 39° 294° (WNW) 21:13:22 ?
HO-68 31 Jul 21:22:00 21:29:12 86° 253° (WSW) 21:36:25 435.675 MHz FM
Oscar 11 31 Jul 21:31:28 21:35:29 40° 69° (ENE) 21:39:32 145.825 FM, Beacon 2401.500 USB
MaSat-1 31 Jul 21:40:25 21:44:42 86° 299° (WNW) 21:49:40 437.345 MHz
SO-50 31 Jul 21:44:36 21:48:56 36° 242° (WSW) 21:53:19 436.795 FM
UOSAT-12 31 Jul 21:49:57 21:54:21 36° 41° (NE) 21:58:41 437.025 FM, 437.400 FM
FUNcube-1 31 Jul 22:00:50 22:04:36 31° 68° (ENE) 22:08:20 145.950 - 145.970 MHz USB
AO-40 31 Jul 22:12:38 03:43:23 30° 185° (S) 08:39:47 Beacon 2401.320
UKube-1 31 Jul 22:25:39 22:29:31 30° 264° (W) 22:33:24 145.840 MHz, 145.915 MHz
RS-15 31 Jul 22:34:20 22:45:23 83° 236° (WSW) 22:56:48 29.354 - 29.394 USB, Beacon 29.352 USB
Oscar 11 31 Jul 23:08:28 23:11:50 22° 267° (W) 23:15:14 145.825 FM, Beacon 2401.500 USB
HO-68 31 Jul 23:13:22 23:17:55 18° 272° (W) 23:22:30 435.675 MHz FM
MaSat-1 31 Jul 23:19:45 23:22:53 18° 322° (NW) 23:26:15 437.345 MHz
ISS 31 Jul 23:29:22 23:32:31 40° 145° (SE) 23:35:42 145.800 FM
UOSAT-12 31 Jul 23:30:08 23:34:35 40° 241° (WSW) 23:38:57 437.025 FM, 437.400 FM
FUNcube-1 31 Jul 23:37:21 23:41:01 27° 265° (W) 23:44:39 145.950 - 145.970 MHz USB
Sapphire 01 Aug 00:14:31 00:19:14 32° 111° (ESE) 00:24:00 437.095 MHz 1200 baud AX-25 AFSK
PCSat 01 Aug 00:46:51 00:52:10 61° 118° (ESE) 00:57:32 145.825 MHz
RS-15 01 Aug 00:48:07 00:56:05 24° 259° (W) 01:04:16 29.354 - 29.394 USB, Beacon 29.352 USB
ISS 01 Aug 01:05:56 01:09:13 51° 344° (NNW) 01:12:31 145.800 FM
Sapphire 01 Aug 01:57:17 02:02:30 47° 311° (NW) 02:07:45 437.095 MHz 1200 baud AX-25 AFSK
AO-Echo 01 Aug 02:06:56 02:09:17 13° 86° (E) 02:11:36 ?
Oscar 19 01 Aug 02:11:51 02:16:24 30° 95° (E) 02:20:56 437.125 CW, 437.150 USB
PCSat 01 Aug 02:31:17 02:35:59 29° 319° (NW) 02:40:42 145.825 MHz
OPAL 01 Aug 02:39:32 02:42:20 15° 53° (NE) 02:45:09 ?
Oscar 16 01 Aug 02:40:27 02:45:33 56° 101° (E) 02:50:37 437.025 USB, Beacon 2401.1428
ISS 01 Aug 02:43:09 02:46:20 38° 4° (N) 02:49:31 145.800 FM
JAS-1B 01 Aug 02:54:25 03:02:37 34° 89° (E) 03:09:44 435.800 - 435.900 CW/SSB
ITAMSAT 1 01 Aug 03:07:36 03:12:33 44° 99° (E) 03:17:28 435.822 SSB
Uribyol 2 01 Aug 03:26:10 03:31:20 67° 102° (ESE) 03:36:28 436.500 FM
AO-27 01 Aug 03:27:31 03:32:42 67° 102° (ESE) 03:37:50 436.795 MHz FM
TMSAT-1 01 Aug 03:40:45 03:45:22 29° 94° (E) 03:49:56 436.925 FM
AO-Echo 01 Aug 03:43:42 03:48:48 85° 285° (WNW) 03:53:42 ?
Sapphire 01 Aug 03:44:21 03:47:18 15° 334° (NNW) 03:50:16 437.095 MHz 1200 baud AX-25 AFSK
Oscar 19 01 Aug 03:51:02 03:55:50 40° 293° (WNW) 04:00:39 437.125 CW, 437.150 USB
AO-7 01 Aug 03:53:34 03:57:27 14° 84° (E) 04:01:18 29.400 - 29.500 MHz
Gurwin Techsat 1B 01 Aug 04:06:44 04:12:02 65° 102° (ESE) 04:17:18 435.225 FM
Uosat F 01 Aug 04:07:21 04:08:42 11° 86° (E) 04:10:01 435.120 FM
OPAL 01 Aug 04:15:35 04:20:32 90° 254° (WSW) 04:25:32 ?
MaSat-1 01 Aug 04:19:22 04:22:23 15° 35° (NE) 04:25:23 437.345 MHz
PCSat 01 Aug 04:19:52 04:21:18 11° 344° (NNW) 04:22:45 145.825 MHz
ISS 01 Aug 04:19:57 04:23:20 83° 22° (NNE) 04:26:42 145.800 FM
Oscar 16 01 Aug 04:20:31 04:24:33 24° 299° (WNW) 04:28:35 437.025 USB, Beacon 2401.1428
JAS-1B 01 Aug 04:44:27 04:53:50 68° 292° (WNW) 05:01:50 435.800 - 435.900 CW/SSB
ITAMSAT 1 01 Aug 04:47:28 04:51:52 29° 297° (WNW) 04:56:15 435.822 SSB
KITSAT 1 01 Aug 04:48:58 04:54:09 19° 101° (E) 04:59:21 435.175 FM
Uribyol 2 01 Aug 05:06:39 05:10:20 20° 301° (WNW) 05:14:00 436.500 FM
AO-27 01 Aug 05:08:00 05:11:44 20° 301° (WNW) 05:15:27 436.795 MHz FM
STRAND 1 01 Aug 05:09:26 05:10:36 11° 52° (NE) 05:11:46 ?
TMSAT-1 01 Aug 05:20:27 05:25:26 43° 293° (WNW) 05:30:23 436.925 FM
AO-Echo 01 Aug 05:24:14 05:26:46 14° 305° (NW) 05:29:15 ?
Uosat F 01 Aug 05:43:14 05:48:17 82° 105° (ESE) 05:53:18 435.120 FM
AO-7 01 Aug 05:43:34 05:51:53 66° 105° (ESE) 06:00:07 29.400 - 29.500 MHz
Gurwin Techsat 1B 01 Aug 05:47:37 05:51:32 22° 301° (WNW) 05:55:28 435.225 FM
MaSat-1 01 Aug 05:55:35 06:00:51 58° 56° (NE) 06:05:52 437.345 MHz
ISS 01 Aug 05:57:12 05:59:43 20° 222° (SW) 06:02:13 145.800 FM
OPAL 01 Aug 05:58:10 06:00:09 12° 271° (W) 06:02:08 ?
Hamsat 01 Aug 06:06:25 06:08:40 14° 89° (E) 06:10:54 145.90 MHz
JAS-1B 01 Aug 06:36:04 06:42:30 21° 316° (NW) 06:48:28 435.800 - 435.900 CW/SSB
Saudisat 1A 01 Aug 06:38:51 06:41:57 19° 113° (ESE) 06:45:03 436.775 MHz
KITSAT 1 01 Aug 06:40:13 06:48:19 80° 122° (ESE) 06:56:26 435.175 FM
JAS-2 01 Aug 06:40:41 06:45:32 26° 91° (E) 06:50:00 435.800 - 435.900 CW/SSB, 435.910 FM
STRAND 1 01 Aug 06:43:44 06:48:48 62° 71° (ENE) 06:53:53 ?
Sapphire 01 Aug 07:16:04 07:19:18 16° 28° (NNE) 07:22:31 437.095 MHz 1200 baud AX-25 AFSK
Uosat F 01 Aug 07:23:24 07:26:27 16° 303° (WNW) 07:29:30 435.120 FM
MaSat-1 01 Aug 07:33:38 07:37:47 24° 256° (WSW) 07:41:44 437.345 MHz
SO-67 01 Aug 07:34:12 07:36:27 16° 92° (E) 07:38:40 435.3500 MHz FM
AO-7 01 Aug 07:36:55 07:44:12 36° 306° (NW) 07:51:28 29.400 - 29.500 MHz
Hamsat 01 Aug 07:40:47 07:45:05 66° 286° (WNW) 07:49:23 145.90 MHz
PCSat 01 Aug 07:48:48 07:53:04 23° 36° (NE) 07:57:19 145.825 MHz
Saudisat 1A 01 Aug 08:16:44 08:21:07 62° 311° (NW) 08:25:32 436.775 MHz
STRAND 1 01 Aug 08:24:44 08:28:25 20° 269° (W) 08:32:06 ?
JAS-2 01 Aug 08:25:18 08:31:02 49° 293° (WNW) 08:36:13 435.800 - 435.900 CW/SSB, 435.910 FM
KITSAT 1 01 Aug 08:37:14 08:44:32 36° 326° (NW) 08:51:53 435.175 FM
